Regional Weather Roundup
Issued by NWS

Home | Current Version | Previous Version | Graphics & Text | Print | Product List | Glossary On
Versions: 1 2 3 4 5 6 7 8 9 10 11 12 13 14 15 16 17 18 19 20 21 22 23 24 25 26 27 28 29 30 31 32 33 34 35 36 37 38 39 40 41 42 43 44 45 46 47 48 49 50
000
ASUS43 KTOP 061608
RWRKS

WEATHER ROUNDUP FOR KANSAS
NATIONAL WEATHER SERVICE GOODLAND KS
1000 AM CST FRI MAR 06 2015

NOTE:  "FAIR" INDICATES FEW OR NO CLOUDS BELOW 12,000 FEET WITH NO
SIGNIFICANT WEATHER AND/OR OBSTRUCTIONS TO VISIBILITY.

KSZ001>006-013>018-027>032-041>047-061700-
NORTHWEST KANSAS

CITY           SKY/WX    TMP DP  RH WIND       PRES   REMARKS
GOODLAND       SUNNY     48  21  34 W13       30.31R
HAYS           SUNNY     46  21  36 NW6       30.32S
HILL CITY      SUNNY     45  22  40 W8        30.30R
RUSSELL        SUNNY     43  23  45 W7        30.30R
$$

KSZ061>065-074>080-084>089-061700-
SOUTHWEST KANSAS

CITY           SKY/WX    TMP DP  RH WIND       PRES   REMARKS
DODGE CITY     SUNNY     43  25  49 W9        30.35R
ELKHART          N/A     42  27  55 NW6         N/A
GARDEN CITY    SUNNY     40  24  53 SW7       30.33R
GREAT BEND     SUNNY     45  25  45 W8        30.33S
LIBERAL        SUNNY     41  28  60 NW10      30.38R
PRATT          SUNNY     43  30  61 W10       30.36R
$$

KSZ066>073-081>083-090>101-061700-
SOUTHEAST KANSAS

CITY           SKY/WX    TMP DP  RH WIND       PRES   REMARKS
CHANUTE        SUNNY     39  23  52 SW15      30.41S WCI  31
COFFEYVILLE    SUNNY     40  22  48 SW14G26   30.45S WCI  32
HUTCHINSON     SUNNY     41  27  57 W9        30.35S
MEDICINE LODGE   N/A     42  28  57 SW3       30.37F
NEWTON         SUNNY     37  25  60 SW16      30.36S WCI  28
PARSONS        SUNNY     40  23  50 SW15      30.44S WCI  32
WICHITA INTL   MOSUNNY   40  25  55 SW13      30.38R WCI  32
WICHITA JABRA  SUNNY     40  25  55 SW14      30.37S WCI  32
WICHITA MCCONL SUNNY     40  25  54 S13       30.38R WCI  33
WINFIELD       SUNNY     40  25  55 SW14      30.43R WCI  32
$$

KSZ007>012-019>026-033>040-048>060-102>105-061700-
NORTHEAST KANSAS

CITY           SKY/WX    TMP DP  RH WIND       PRES   REMARKS
CONCORDIA      SUNNY     43  19  38 W10       30.28S
EMPORIA        SUNNY     43  25  49 W10       30.34S
LAWRENCE       SUNNY     41  22  46 SW13      30.34S
MANHATTAN      SUNNY     42  25  50 SW10      30.32S
MARYSVILLE     SUNNY     39  23  52 W7        30.29R
OLATHE IND     SUNNY     39  23  52 SW16      30.34S WCI  30
OLATHE EXE     SUNNY     38  22  52 SW13G22   30.33R WCI  30
SALINA         SUNNY     43  23  45 SW9       30.33S
TOPEKA BILLARD SUNNY     42  22  44 SW12      30.32F
TOPEKA FORBES  SUNNY     43  23  45 SW14      30.32S
$$



USA.gov is the U.S. government's official web portal to all federal, state and local government web resources and services.